Year,Month,Day,Hour,Minute,Value (Times are PST for temperature in C)
2013,07,15,00,00,12.90
2013,07,15,00,01,12.90
2013,07,15,00,02,12.90
2013,07,15,00,03,12.90
2013,07,15,00,04,12.80
2013,07,15,00,05,12.80
2013,07,15,00,06,12.80
2013,07,15,00,07,12.80
2013,07,15,00,08,12.80
2013,07,15,00,09,12.80
2013,07,15,00,10,12.70
2013,07,15,00,11,12.70
2013,07,15,00,12,12.70
2013,07,15,00,13,12.70
2013,07,15,00,14,12.70
2013,07,15,00,15,12.60
2013,07,15,00,16,12.60
2013,07,15,00,17,12.60
2013,07,15,00,18,12.60
2013,07,15,00,19,12.60
2013,07,15,00,20,12.60
2013,07,15,00,21,12.60
2013,07,15,00,22,12.50
2013,07,15,00,23,12.50
2013,07,15,00,24,12.50
2013,07,15,00,25,12.40
2013,07,15,00,26,12.50
2013,07,15,00,27,12.40
2013,07,15,00,28,12.50
2013,07,15,00,29,12.50
2013,07,15,00,30,12.50
2013,07,15,00,31,12.40
2013,07,15,00,32,12.40
2013,07,15,00,33,12.40
2013,07,15,00,34,12.40
2013,07,15,00,35,12.40
2013,07,15,00,36,12.40
2013,07,15,00,37,12.40
2013,07,15,00,38,12.30
2013,07,15,00,39,12.30
2013,07,15,00,40,12.30
2013,07,15,00,41,12.30
2013,07,15,00,42,12.30
2013,07,15,00,43,12.30
2013,07,15,00,44,12.30
2013,07,15,00,45,12.30
2013,07,15,00,46,12.30
2013,07,15,00,47,12.30
2013,07,15,00,48,12.20
2013,07,15,00,49,12.20
2013,07,15,00,50,12.20
2013,07,15,00,51,12.20
2013,07,15,00,52,12.20
2013,07,15,00,53,12.20
2013,07,15,00,54,12.20
2013,07,15,00,55,12.10
2013,07,15,00,56,12.10
2013,07,15,00,57,12.10
2013,07,15,00,58,12.10
2013,07,15,00,59,12.10
2013,07,15,01,00,12.10
2013,07,15,01,01,12.10
2013,07,15,01,02,12.10
2013,07,15,01,03,12.10
2013,07,15,01,04,12.10
2013,07,15,01,05,12.00
2013,07,15,01,06,12.00
2013,07,15,01,07,12.00
2013,07,15,01,08,11.90
2013,07,15,01,09,12.00
2013,07,15,01,10,11.90
2013,07,15,01,11,11.90
2013,07,15,01,12,11.90
2013,07,15,01,13,11.90
2013,07,15,01,14,11.90
2013,07,15,01,15,11.90
2013,07,15,01,16,11.80
2013,07,15,01,17,11.80
2013,07,15,01,18,11.80
2013,07,15,01,19,11.80
2013,07,15,01,20,11.80
2013,07,15,01,21,11.80
2013,07,15,01,22,11.80
2013,07,15,01,23,11.80
2013,07,15,01,24,11.80
2013,07,15,01,25,11.80
2013,07,15,01,26,11.70
2013,07,15,01,27,11.70
2013,07,15,01,28,11.70
2013,07,15,01,29,11.70
2013,07,15,01,30,11.70
2013,07,15,01,31,11.60
2013,07,15,01,32,11.60
2013,07,15,01,33,11.60
2013,07,15,01,34,11.60
2013,07,15,01,35,11.60
2013,07,15,01,36,11.60
2013,07,15,01,37,11.60
2013,07,15,01,38,11.50
2013,07,15,01,39,11.50
2013,07,15,01,40,11.50
2013,07,15,01,41,11.50
2013,07,15,01,42,11.50
2013,07,15,01,43,11.50
2013,07,15,01,44,11.40
2013,07,15,01,45,11.40
2013,07,15,01,46,11.40
2013,07,15,01,47,11.40
2013,07,15,01,48,11.40
2013,07,15,01,49,11.40
2013,07,15,01,50,11.40
2013,07,15,01,51,11.30
2013,07,15,01,52,11.30
2013,07,15,01,53,11.30
2013,07,15,01,54,11.30
2013,07,15,01,55,11.30
2013,07,15,01,56,11.30
2013,07,15,01,57,11.30
2013,07,15,01,58,11.30
2013,07,15,01,59,11.30
2013,07,15,02,00,11.30
2013,07,15,02,01,11.20
2013,07,15,02,02,11.20
2013,07,15,02,03,11.20
2013,07,15,02,04,11.20
2013,07,15,02,05,11.20
2013,07,15,02,06,11.20
2013,07,15,02,07,11.20
2013,07,15,02,08,11.20
2013,07,15,02,09,11.20
2013,07,15,02,10,11.20
2013,07,15,02,11,11.20
2013,07,15,02,12,11.20
2013,07,15,02,13,11.10
2013,07,15,02,14,11.10
2013,07,15,02,15,11.10
2013,07,15,02,16,11.10
2013,07,15,02,17,11.10
2013,07,15,02,18,11.10
2013,07,15,02,19,11.10
2013,07,15,02,20,11.10
2013,07,15,02,21,11.00
2013,07,15,02,22,11.00
2013,07,15,02,23,11.00
2013,07,15,02,24,10.90
2013,07,15,02,25,10.90
2013,07,15,02,26,10.90
2013,07,15,02,27,10.90
2013,07,15,02,28,10.90
2013,07,15,02,29,10.90
2013,07,15,02,30,10.90
2013,07,15,02,31,10.90
2013,07,15,02,32,10.90
2013,07,15,02,33,10.80
2013,07,15,02,34,10.80
2013,07,15,02,35,10.80
2013,07,15,02,36,10.80
2013,07,15,02,37,10.80
2013,07,15,02,38,10.80
2013,07,15,02,39,10.80
2013,07,15,02,40,10.80
2013,07,15,02,41,10.80
2013,07,15,02,42,10.80
2013,07,15,02,43,10.80
2013,07,15,02,44,10.80
2013,07,15,02,45,10.80
2013,07,15,02,46,10.80
2013,07,15,02,47,10.80
2013,07,15,02,48,10.80
2013,07,15,02,49,10.80
2013,07,15,02,50,10.70
2013,07,15,02,51,10.70
2013,07,15,02,52,10.70
2013,07,15,02,53,10.70
2013,07,15,02,54,10.70
2013,07,15,02,55,10.60
2013,07,15,02,56,10.60
2013,07,15,02,57,10.60
2013,07,15,02,58,10.60
2013,07,15,02,59,10.60
2013,07,15,03,00,10.60
2013,07,15,03,01,10.60
2013,07,15,03,02,10.50
2013,07,15,03,03,10.50
2013,07,15,03,04,10.50
2013,07,15,03,05,10.50
2013,07,15,03,06,10.50
2013,07,15,03,07,10.50
2013,07,15,03,08,10.40
2013,07,15,03,09,10.40
2013,07,15,03,10,10.40
2013,07,15,03,11,10.40
2013,07,15,03,12,10.40
2013,07,15,03,13,10.40
2013,07,15,03,14,10.40
2013,07,15,03,15,10.40
2013,07,15,03,16,10.40
2013,07,15,03,17,10.30
2013,07,15,03,18,10.30
2013,07,15,03,19,10.30
2013,07,15,03,20,10.30
2013,07,15,03,21,10.30
2013,07,15,03,22,10.30
2013,07,15,03,23,10.20
2013,07,15,03,24,10.20
2013,07,15,03,25,10.20
2013,07,15,03,26,10.20
2013,07,15,03,27,10.20
2013,07,15,03,28,10.20
2013,07,15,03,29,10.20
2013,07,15,03,30,10.20
2013,07,15,03,31,10.10
2013,07,15,03,32,10.10
2013,07,15,03,33,10.10
2013,07,15,03,34,10.10
2013,07,15,03,35,10.10
2013,07,15,03,36,10.10
2013,07,15,03,37,10.10
2013,07,15,03,38,10.10
2013,07,15,03,39,10.10
2013,07,15,03,40,10.10
2013,07,15,03,41,10.10
2013,07,15,03,42,10.10
2013,07,15,03,43,10.10
2013,07,15,03,44,10.10
2013,07,15,03,45,10.10
2013,07,15,03,46,10.10
2013,07,15,03,47,10.00
2013,07,15,03,48,10.00
2013,07,15,03,49,10.00
2013,07,15,03,50,10.00
2013,07,15,03,51,10.00
2013,07,15,03,52,10.00
2013,07,15,03,53,9.90
2013,07,15,03,54,9.90
2013,07,15,03,55,9.90
2013,07,15,03,56,9.90
2013,07,15,03,57,9.90
2013,07,15,03,58,9.90
2013,07,15,03,59,9.90
2013,07,15,04,00,9.90
2013,07,15,04,01,9.90
2013,07,15,04,02,9.90
2013,07,15,04,03,9.90
2013,07,15,04,04,9.90
2013,07,15,04,05,9.90
2013,07,15,04,06,9.90
2013,07,15,04,07,9.90
2013,07,15,04,08,9.90
2013,07,15,04,09,9.80
2013,07,15,04,10,9.80
2013,07,15,04,11,9.80
2013,07,15,04,12,9.80
2013,07,15,04,13,9.80
2013,07,15,04,14,9.80
2013,07,15,04,15,9.70
2013,07,15,04,16,9.70
2013,07,15,04,17,9.70
2013,07,15,04,18,9.70
2013,07,15,04,19,9.70
2013,07,15,04,20,9.70
2013,07,15,04,21,9.70
2013,07,15,04,22,9.70
2013,07,15,04,23,9.70
2013,07,15,04,24,9.70
2013,07,15,04,25,9.60
2013,07,15,04,26,9.60
2013,07,15,04,27,9.60
2013,07,15,04,28,9.60
2013,07,15,04,29,9.60
2013,07,15,04,30,9.60
2013,07,15,04,31,9.60
2013,07,15,04,32,9.60
2013,07,15,04,33,9.60
2013,07,15,04,34,9.50
2013,07,15,04,35,9.50
2013,07,15,04,36,9.50
2013,07,15,04,37,9.50
2013,07,15,04,38,9.50
2013,07,15,04,39,9.40
2013,07,15,04,40,9.40
2013,07,15,04,41,9.40
2013,07,15,04,42,9.40
2013,07,15,04,43,9.40
2013,07,15,04,44,9.40
2013,07,15,04,45,9.40
2013,07,15,04,46,9.30
2013,07,15,04,47,9.30
2013,07,15,04,48,9.30
2013,07,15,04,49,9.30
2013,07,15,04,50,9.30
2013,07,15,04,51,9.30
2013,07,15,04,52,9.30
2013,07,15,04,53,9.30
2013,07,15,04,54,9.30
2013,07,15,04,55,9.20
2013,07,15,04,56,9.20
2013,07,15,04,57,9.20
2013,07,15,04,58,9.20
2013,07,15,04,59,9.20
2013,07,15,05,00,9.20
2013,07,15,05,01,9.20
2013,07,15,05,02,9.20
2013,07,15,05,03,9.10
2013,07,15,05,04,9.10
2013,07,15,05,05,9.10
2013,07,15,05,06,9.10
2013,07,15,05,07,9.10
2013,07,15,05,08,9.10
2013,07,15,05,09,9.10
2013,07,15,05,10,9.10
2013,07,15,05,11,9.10
2013,07,15,05,12,9.10
2013,07,15,05,13,9.10
2013,07,15,05,14,9.10
2013,07,15,05,15,9.10
2013,07,15,05,16,9.10
2013,07,15,05,17,9.10
2013,07,15,05,18,9.10
2013,07,15,05,19,9.10
2013,07,15,05,20,9.10
2013,07,15,05,21,9.10
2013,07,15,05,22,9.10
2013,07,15,05,23,9.10
2013,07,15,05,24,9.10
2013,07,15,05,25,9.10
2013,07,15,05,26,9.10
2013,07,15,05,27,9.10
2013,07,15,05,28,9.10
2013,07,15,05,29,9.10
2013,07,15,05,30,9.10
2013,07,15,05,31,9.10
2013,07,15,05,32,9.10
2013,07,15,05,33,9.10
2013,07,15,05,34,9.10
2013,07,15,05,35,9.10
2013,07,15,05,36,9.10
2013,07,15,05,37,9.10
2013,07,15,05,38,9.10
2013,07,15,05,39,9.10
2013,07,15,05,40,9.10
2013,07,15,05,41,9.10
2013,07,15,05,42,9.10
2013,07,15,05,43,9.00
2013,07,15,05,44,9.00
2013,07,15,05,45,9.00
2013,07,15,05,46,9.00
2013,07,15,05,47,9.00
2013,07,15,05,48,9.00
2013,07,15,05,49,9.00
2013,07,15,05,50,9.00
2013,07,15,05,51,9.00
2013,07,15,05,52,9.00
2013,07,15,05,53,9.00
2013,07,15,05,54,9.00
2013,07,15,05,55,9.00
2013,07,15,05,56,9.10
2013,07,15,05,57,9.10
2013,07,15,05,58,9.10
2013,07,15,05,59,9.10
2013,07,15,06,00,9.10
2013,07,15,06,01,9.10
2013,07,15,06,02,9.10
2013,07,15,06,03,9.10
2013,07,15,06,04,9.10
2013,07,15,06,05,9.10
2013,07,15,06,06,9.10
2013,07,15,06,07,9.10
2013,07,15,06,08,9.10
2013,07,15,06,09,9.10
2013,07,15,06,10,9.10
2013,07,15,06,11,9.10
2013,07,15,06,12,9.10
2013,07,15,06,13,9.10
2013,07,15,06,14,9.10
2013,07,15,06,15,9.10
2013,07,15,06,16,9.10
2013,07,15,06,17,9.10
2013,07,15,06,18,9.10
2013,07,15,06,19,9.10
2013,07,15,06,20,9.10
2013,07,15,06,21,9.10
2013,07,15,06,22,9.10
2013,07,15,06,23,9.10
2013,07,15,06,24,9.10
2013,07,15,06,25,9.10
2013,07,15,06,26,9.10
2013,07,15,06,27,9.10
2013,07,15,06,28,9.10
2013,07,15,06,29,9.20
2013,07,15,06,30,9.20
2013,07,15,06,31,9.20
2013,07,15,06,32,9.30
2013,07,15,06,33,9.30
2013,07,15,06,34,9.30
2013,07,15,06,35,9.40
2013,07,15,06,36,9.40
2013,07,15,06,37,9.50
2013,07,15,06,38,9.50
2013,07,15,06,39,9.60
2013,07,15,06,40,9.60
2013,07,15,06,41,9.70
2013,07,15,06,42,9.70
2013,07,15,06,43,9.80
2013,07,15,06,44,9.80
2013,07,15,06,45,9.90
2013,07,15,06,46,10.00
2013,07,15,06,47,10.00
2013,07,15,06,48,10.10
2013,07,15,06,49,10.20
2013,07,15,06,50,10.20
2013,07,15,06,51,10.30
2013,07,15,06,52,10.40
2013,07,15,06,53,10.50
2013,07,15,06,54,10.60
2013,07,15,06,55,10.70
2013,07,15,06,56,10.80
2013,07,15,06,57,10.90
2013,07,15,06,58,11.00
2013,07,15,06,59,11.10
2013,07,15,07,00,11.30
2013,07,15,07,01,11.40
2013,07,15,07,02,11.60
2013,07,15,07,03,11.70
2013,07,15,07,04,11.80
2013,07,15,07,05,12.00
2013,07,15,07,06,12.10
2013,07,15,07,07,12.20
2013,07,15,07,08,12.40
2013,07,15,07,09,12.50
2013,07,15,07,10,12.60
2013,07,15,07,11,12.70
2013,07,15,07,12,12.70
2013,07,15,07,13,12.80
2013,07,15,07,14,12.90
2013,07,15,07,15,12.90
2013,07,15,07,16,13.00
2013,07,15,07,17,13.10
2013,07,15,07,18,13.20
2013,07,15,07,19,13.30
2013,07,15,07,20,13.40
2013,07,15,07,21,13.50
2013,07,15,07,22,13.60
2013,07,15,07,23,13.80
2013,07,15,07,24,13.90
2013,07,15,07,25,14.10
2013,07,15,07,26,14.20
2013,07,15,07,27,14.30
2013,07,15,07,28,14.50
2013,07,15,07,29,14.60
2013,07,15,07,30,14.70
2013,07,15,07,31,14.90
2013,07,15,07,32,15.00
2013,07,15,07,33,15.20
2013,07,15,07,34,15.30
2013,07,15,07,35,15.40
2013,07,15,07,36,15.60
2013,07,15,07,37,15.70
2013,07,15,07,38,15.80
2013,07,15,07,39,16.00
2013,07,15,07,40,16.10
2013,07,15,07,41,16.20
2013,07,15,07,42,16.40
2013,07,15,07,43,16.50
2013,07,15,07,44,16.70
2013,07,15,07,45,16.80
2013,07,15,07,46,17.00
2013,07,15,07,47,17.10
2013,07,15,07,48,17.20
2013,07,15,07,49,17.30
2013,07,15,07,50,17.40
2013,07,15,07,51,17.50
2013,07,15,07,52,17.60
2013,07,15,07,53,17.70
2013,07,15,07,54,17.80
2013,07,15,07,55,17.90
2013,07,15,07,56,18.00
2013,07,15,07,57,18.10
2013,07,15,07,58,18.20
2013,07,15,07,59,18.30
2013,07,15,08,00,18.40
2013,07,15,08,01,18.40
2013,07,15,08,02,18.50
2013,07,15,08,03,18.60
2013,07,15,08,04,18.60
2013,07,15,08,05,18.70
2013,07,15,08,06,18.80
2013,07,15,08,07,18.80
2013,07,15,08,08,18.90
2013,07,15,08,09,18.90
2013,07,15,08,10,19.00
2013,07,15,08,11,19.10
2013,07,15,08,12,19.10
2013,07,15,08,13,19.20
2013,07,15,08,14,19.30
2013,07,15,08,15,19.30
2013,07,15,08,16,19.40
2013,07,15,08,17,19.40
2013,07,15,08,18,19.50
2013,07,15,08,19,19.60
2013,07,15,08,20,19.60
2013,07,15,08,21,19.60
2013,07,15,08,22,19.60
2013,07,15,08,23,19.60
2013,07,15,08,24,19.60
2013,07,15,08,25,19.70
2013,07,15,08,26,19.70
2013,07,15,08,27,19.70
2013,07,15,08,28,19.80
2013,07,15,08,29,19.80
2013,07,15,08,30,19.80
2013,07,15,08,31,19.90
2013,07,15,08,32,19.90
2013,07,15,08,33,20.00
2013,07,15,08,34,20.10
2013,07,15,08,35,20.10
2013,07,15,08,36,20.20
2013,07,15,08,37,20.30
2013,07,15,08,38,20.30
2013,07,15,08,39,20.30
2013,07,15,08,40,20.40
2013,07,15,08,41,20.40
2013,07,15,08,42,20.50
2013,07,15,08,43,20.50
2013,07,15,08,44,20.60
2013,07,15,08,45,20.60
2013,07,15,08,46,20.70
2013,07,15,08,47,20.70
2013,07,15,08,48,20.70
2013,07,15,08,49,20.70
2013,07,15,08,50,20.70
2013,07,15,08,51,20.70
2013,07,15,08,52,20.70
2013,07,15,08,53,20.70
2013,07,15,08,54,20.80
2013,07,15,08,55,20.80
2013,07,15,08,56,20.90
2013,07,15,08,57,20.90
2013,07,15,08,58,20.90
2013,07,15,08,59,20.90
2013,07,15,09,00,20.80
2013,07,15,09,01,20.90
2013,07,15,09,02,20.90
2013,07,15,09,03,21.00
2013,07,15,09,04,21.00
2013,07,15,09,05,21.00
2013,07,15,09,06,21.10
2013,07,15,09,07,21.20
2013,07,15,09,08,21.20
2013,07,15,09,09,21.30
2013,07,15,09,10,21.30
2013,07,15,09,11,21.30
2013,07,15,09,12,21.40
2013,07,15,09,13,21.40
2013,07,15,09,14,21.40
2013,07,15,09,15,21.40
2013,07,15,09,16,21.40
2013,07,15,09,17,21.30
2013,07,15,09,18,21.30
2013,07,15,09,19,21.30
2013,07,15,09,20,21.30
2013,07,15,09,21,21.30
2013,07,15,09,22,21.30
2013,07,15,09,23,21.40
2013,07,15,09,24,21.40
2013,07,15,09,25,21.40
2013,07,15,09,26,21.40
2013,07,15,09,27,21.40
2013,07,15,09,28,21.40
2013,07,15,09,29,21.40
2013,07,15,09,30,21.40
2013,07,15,09,31,21.40
2013,07,15,09,32,21.50
2013,07,15,09,33,21.60
2013,07,15,09,34,21.70
2013,07,15,09,35,21.70
2013,07,15,09,36,21.80
2013,07,15,09,37,21.90
2013,07,15,09,38,22.00
2013,07,15,09,39,22.10
2013,07,15,09,40,22.10
2013,07,15,09,41,22.10
2013,07,15,09,42,22.10
2013,07,15,09,43,22.20
2013,07,15,09,44,22.20
2013,07,15,09,45,22.20
2013,07,15,09,46,22.20
2013,07,15,09,47,22.20
2013,07,15,09,48,22.20
2013,07,15,09,49,22.20
2013,07,15,09,50,22.20
2013,07,15,09,51,22.20
2013,07,15,09,52,22.20
2013,07,15,09,53,22.20
2013,07,15,09,54,22.30
2013,07,15,09,55,22.30
2013,07,15,09,56,22.30
2013,07,15,09,57,22.30
2013,07,15,09,58,22.30
2013,07,15,09,59,22.30
2013,07,15,10,00,22.30
2013,07,15,10,01,22.30
2013,07,15,10,02,22.20
2013,07,15,10,03,22.30
2013,07,15,10,04,22.30
2013,07,15,10,05,22.40
2013,07,15,10,06,22.50
2013,07,15,10,07,22.60
2013,07,15,10,08,22.80
2013,07,15,10,09,22.90
2013,07,15,10,10,23.10
2013,07,15,10,11,23.20
2013,07,15,10,12,23.40
2013,07,15,10,13,23.50
2013,07,15,10,14,23.60
2013,07,15,10,15,23.70
2013,07,15,10,16,23.80
2013,07,15,10,17,23.80
2013,07,15,10,18,23.90
2013,07,15,10,19,23.90
2013,07,15,10,20,24.00
2013,07,15,10,21,24.10
2013,07,15,10,22,24.20
2013,07,15,10,23,24.30
2013,07,15,10,24,24.30
2013,07,15,10,25,24.40
2013,07,15,10,26,24.40
2013,07,15,10,27,24.50
2013,07,15,10,28,24.50
2013,07,15,10,29,24.40
2013,07,15,10,30,24.40
2013,07,15,10,31,24.30
2013,07,15,10,32,24.10
2013,07,15,10,33,24.00
2013,07,15,10,34,23.90
2013,07,15,10,35,23.90
2013,07,15,10,36,23.80
2013,07,15,10,37,23.80
2013,07,15,10,38,23.80
2013,07,15,10,39,23.80
2013,07,15,10,40,23.80
2013,07,15,10,41,23.80
2013,07,15,10,42,23.80
2013,07,15,10,43,23.90
2013,07,15,10,44,24.00
2013,07,15,10,45,24.00
2013,07,15,10,46,24.10
2013,07,15,10,47,24.10
2013,07,15,10,48,24.20
2013,07,15,10,49,24.10
2013,07,15,10,50,24.10
2013,07,15,10,51,24.10
2013,07,15,10,52,24.10
2013,07,15,10,53,24.10
2013,07,15,10,54,24.20
2013,07,15,10,55,24.20
2013,07,15,10,56,24.20
2013,07,15,10,57,24.30
2013,07,15,10,58,24.30
2013,07,15,10,59,24.30
2013,07,15,11,00,24.30
2013,07,15,11,01,24.40
2013,07,15,11,02,24.50
2013,07,15,11,03,24.60
2013,07,15,11,04,24.60
2013,07,15,11,05,24.70
2013,07,15,11,06,24.70
2013,07,15,11,07,24.70
2013,07,15,11,08,24.80
2013,07,15,11,09,24.80
2013,07,15,11,10,24.80
2013,07,15,11,11,24.80
2013,07,15,11,12,24.80
2013,07,15,11,13,24.90
2013,07,15,11,14,24.90
2013,07,15,11,15,25.00
2013,07,15,11,16,25.00
2013,07,15,11,17,25.00
2013,07,15,11,18,24.90
2013,07,15,11,19,24.80
2013,07,15,11,20,24.80
2013,07,15,11,21,24.80
2013,07,15,11,22,24.80
2013,07,15,11,23,24.80
2013,07,15,11,24,24.80
2013,07,15,11,25,24.80
2013,07,15,11,26,24.70
2013,07,15,11,27,24.70
2013,07,15,11,28,24.70
2013,07,15,11,29,24.60
2013,07,15,11,30,24.60
2013,07,15,11,31,24.50
2013,07,15,11,32,24.40
2013,07,15,11,33,24.40
2013,07,15,11,34,24.50
2013,07,15,11,35,24.50
2013,07,15,11,36,24.60
2013,07,15,11,37,24.60
2013,07,15,11,38,24.60
2013,07,15,11,39,24.60
2013,07,15,11,40,24.70
2013,07,15,11,41,24.70
2013,07,15,11,42,24.80
2013,07,15,11,43,24.80
2013,07,15,11,44,24.80
2013,07,15,11,45,24.70
2013,07,15,11,46,24.70
2013,07,15,11,47,24.70
2013,07,15,11,48,24.70
2013,07,15,11,49,24.70
2013,07,15,11,50,24.70
2013,07,15,11,51,24.60
2013,07,15,11,52,24.60
2013,07,15,11,53,24.60
2013,07,15,11,54,24.60
2013,07,15,11,55,24.60
2013,07,15,11,56,24.70
2013,07,15,11,57,24.70
2013,07,15,11,58,24.70
2013,07,15,11,59,24.70
2013,07,15,12,00,24.70
2013,07,15,12,01,24.60
2013,07,15,12,02,24.60
2013,07,15,12,03,24.60
2013,07,15,12,04,24.60
2013,07,15,12,05,24.60
2013,07,15,12,06,24.60
2013,07,15,12,07,24.60
2013,07,15,12,08,24.70
2013,07,15,12,09,24.70
2013,07,15,12,10,24.80
2013,07,15,12,11,24.90
2013,07,15,12,12,24.90
2013,07,15,12,13,24.90
2013,07,15,12,14,24.90
2013,07,15,12,15,24.80
2013,07,15,12,16,24.80
2013,07,15,12,17,24.80
2013,07,15,12,18,24.80
2013,07,15,12,19,24.90
2013,07,15,12,20,25.00
2013,07,15,12,21,25.10
2013,07,15,12,22,25.20
2013,07,15,12,23,25.30
2013,07,15,12,24,25.30
2013,07,15,12,25,25.30
2013,07,15,12,26,25.30
2013,07,15,12,27,25.30
2013,07,15,12,28,25.30
2013,07,15,12,29,25.20
2013,07,15,12,30,25.30
2013,07,15,12,31,25.30
2013,07,15,12,32,25.40
2013,07,15,12,33,25.40
2013,07,15,12,34,25.50
2013,07,15,12,35,25.50
2013,07,15,12,36,25.60
2013,07,15,12,37,25.60
2013,07,15,12,38,25.60
2013,07,15,12,39,25.60
2013,07,15,12,40,25.60
2013,07,15,12,41,25.60
2013,07,15,12,42,25.60
2013,07,15,12,43,25.60
2013,07,15,12,44,25.70
2013,07,15,12,45,25.70
2013,07,15,12,46,25.80
2013,07,15,12,47,25.80
2013,07,15,12,48,25.90
2013,07,15,12,49,26.00
2013,07,15,12,50,26.10
2013,07,15,12,51,26.20
2013,07,15,12,52,26.30
2013,07,15,12,53,26.40
2013,07,15,12,54,26.40
2013,07,15,12,55,26.50
2013,07,15,12,56,26.60
2013,07,15,12,57,26.70
2013,07,15,12,58,26.80
2013,07,15,12,59,26.80
2013,07,15,13,00,26.90
2013,07,15,13,01,26.90
2013,07,15,13,02,27.00
2013,07,15,13,03,27.00
2013,07,15,13,04,27.00
2013,07,15,13,05,26.90
2013,07,15,13,06,26.90
2013,07,15,13,07,26.80
2013,07,15,13,08,26.80
2013,07,15,13,09,26.80
2013,07,15,13,10,26.80
2013,07,15,13,11,26.80
2013,07,15,13,12,26.80
2013,07,15,13,13,26.80
2013,07,15,13,14,26.90
2013,07,15,13,15,26.90
2013,07,15,13,16,27.00
2013,07,15,13,17,27.10
2013,07,15,13,18,27.20
2013,07,15,13,19,27.30
2013,07,15,13,20,27.30
2013,07,15,13,21,27.20
2013,07,15,13,22,27.20
2013,07,15,13,23,27.10
2013,07,15,13,24,27.00
2013,07,15,13,25,27.00
2013,07,15,13,26,26.90
2013,07,15,13,27,26.90
2013,07,15,13,28,26.90
2013,07,15,13,29,26.90
2013,07,15,13,30,27.00
2013,07,15,13,31,27.00
2013,07,15,13,32,27.10
2013,07,15,13,33,27.10
2013,07,15,13,34,27.20
2013,07,15,13,35,27.20
2013,07,15,13,36,27.20
2013,07,15,13,37,27.20
2013,07,15,13,38,27.30
2013,07,15,13,39,27.30
2013,07,15,13,40,27.40
2013,07,15,13,41,27.40
2013,07,15,13,42,27.50
2013,07,15,13,43,27.50
2013,07,15,13,44,27.50
2013,07,15,13,45,27.40
2013,07,15,13,46,27.40
2013,07,15,13,47,27.40
2013,07,15,13,48,27.40
2013,07,15,13,49,27.50
2013,07,15,13,50,27.50
2013,07,15,13,51,27.50
2013,07,15,13,52,27.40
2013,07,15,13,53,27.40
2013,07,15,13,54,27.40
2013,07,15,13,55,27.50
2013,07,15,13,56,27.50
2013,07,15,13,57,27.60
2013,07,15,13,58,27.60
2013,07,15,13,59,27.70
2013,07,15,14,00,27.80
2013,07,15,14,01,27.80
2013,07,15,14,02,27.80
2013,07,15,14,03,27.80
2013,07,15,14,04,27.80
2013,07,15,14,05,27.80
2013,07,15,14,06,27.80
2013,07,15,14,07,27.90
2013,07,15,14,08,27.90
2013,07,15,14,09,27.90
2013,07,15,14,10,27.90
2013,07,15,14,11,28.00
2013,07,15,14,12,28.10
2013,07,15,14,13,28.10
2013,07,15,14,14,28.10
2013,07,15,14,15,28.10
2013,07,15,14,16,28.00
2013,07,15,14,17,27.90
2013,07,15,14,18,27.90
2013,07,15,14,19,27.80
2013,07,15,14,20,27.80
2013,07,15,14,21,27.80
2013,07,15,14,22,27.90
2013,07,15,14,23,27.90
2013,07,15,14,24,27.90
2013,07,15,14,25,27.90
2013,07,15,14,26,27.90
2013,07,15,14,27,27.90
2013,07,15,14,28,27.80
2013,07,15,14,29,27.80
2013,07,15,14,30,27.80
2013,07,15,14,31,27.80
2013,07,15,14,32,27.80
2013,07,15,14,33,27.90
2013,07,15,14,34,27.90
2013,07,15,14,35,28.00
2013,07,15,14,36,28.10
2013,07,15,14,37,28.20
2013,07,15,14,38,28.30
2013,07,15,14,39,28.40
2013,07,15,14,40,28.50
2013,07,15,14,41,28.50
2013,07,15,14,42,28.60
2013,07,15,14,43,28.60
2013,07,15,14,44,28.60
2013,07,15,14,45,28.50
2013,07,15,14,46,28.50
2013,07,15,14,47,28.40
2013,07,15,14,48,28.40
2013,07,15,14,49,28.40
2013,07,15,14,50,28.40
2013,07,15,14,51,28.40
2013,07,15,14,52,28.50
2013,07,15,14,53,28.50
2013,07,15,14,54,28.40
2013,07,15,14,55,28.40
2013,07,15,14,56,28.30
2013,07,15,14,57,28.30
2013,07,15,14,58,28.30
2013,07,15,14,59,28.30
2013,07,15,15,00,28.30
2013,07,15,15,01,28.20
2013,07,15,15,02,28.20
2013,07,15,15,03,28.10
2013,07,15,15,04,28.10
2013,07,15,15,05,28.10
2013,07,15,15,06,28.10
2013,07,15,15,07,28.10
2013,07,15,15,08,28.20
2013,07,15,15,09,28.20
2013,07,15,15,10,28.20
2013,07,15,15,11,28.20
2013,07,15,15,12,28.20
2013,07,15,15,13,28.20
2013,07,15,15,14,28.20
2013,07,15,15,15,28.20
2013,07,15,15,16,28.30
2013,07,15,15,17,28.30
2013,07,15,15,18,28.20
2013,07,15,15,19,28.20
2013,07,15,15,20,28.20
2013,07,15,15,21,28.20
2013,07,15,15,22,28.10
2013,07,15,15,23,28.10
2013,07,15,15,24,28.10
2013,07,15,15,25,28.10
2013,07,15,15,26,28.10
2013,07,15,15,27,28.10
2013,07,15,15,28,28.10
2013,07,15,15,29,28.00
2013,07,15,15,30,28.00
2013,07,15,15,31,27.90
2013,07,15,15,32,27.80
2013,07,15,15,33,27.80
2013,07,15,15,34,27.70
2013,07,15,15,35,27.70
2013,07,15,15,36,27.70
2013,07,15,15,37,27.70
2013,07,15,15,38,27.70
2013,07,15,15,39,27.70
2013,07,15,15,40,27.70
2013,07,15,15,41,27.70
2013,07,15,15,42,27.60
2013,07,15,15,43,27.50
2013,07,15,15,44,27.40
2013,07,15,15,45,27.40
2013,07,15,15,46,27.30
2013,07,15,15,47,27.30
2013,07,15,15,48,27.30
2013,07,15,15,49,27.30
2013,07,15,15,50,27.30
2013,07,15,15,51,27.30
2013,07,15,15,52,27.30
2013,07,15,15,53,27.30
2013,07,15,15,54,27.20
2013,07,15,15,55,27.20
2013,07,15,15,56,27.20
2013,07,15,15,57,27.20
2013,07,15,15,58,27.30
2013,07,15,15,59,27.30
2013,07,15,16,00,27.40
2013,07,15,16,01,27.40
2013,07,15,16,02,27.50
2013,07,15,16,03,27.50
2013,07,15,16,04,27.50
2013,07,15,16,05,27.60
2013,07,15,16,06,27.60
2013,07,15,16,07,27.60
2013,07,15,16,08,27.60
2013,07,15,16,09,27.60
2013,07,15,16,10,27.60
2013,07,15,16,11,27.70
2013,07,15,16,12,27.80
2013,07,15,16,13,27.80
2013,07,15,16,14,27.80
2013,07,15,16,15,27.80
2013,07,15,16,16,27.70
2013,07,15,16,17,27.60
2013,07,15,16,18,27.60
2013,07,15,16,19,27.60
2013,07,15,16,20,27.60
2013,07,15,16,21,27.60
2013,07,15,16,22,27.70
2013,07,15,16,23,27.70
2013,07,15,16,24,27.80
2013,07,15,16,25,27.70
2013,07,15,16,26,27.70
2013,07,15,16,27,27.70
2013,07,15,16,28,27.70
2013,07,15,16,29,27.80
2013,07,15,16,30,27.80
2013,07,15,16,31,27.80
2013,07,15,16,32,27.90
2013,07,15,16,33,27.90
2013,07,15,16,34,28.00
2013,07,15,16,35,28.00
2013,07,15,16,36,28.00
2013,07,15,16,37,28.10
2013,07,15,16,38,28.10
2013,07,15,16,39,28.10
2013,07,15,16,40,28.10
2013,07,15,16,41,28.10
2013,07,15,16,42,28.10
2013,07,15,16,43,28.10
2013,07,15,16,44,28.10
2013,07,15,16,45,28.20
2013,07,15,16,46,28.20
2013,07,15,16,47,28.30
2013,07,15,16,48,28.30
2013,07,15,16,49,28.30
2013,07,15,16,50,28.30
2013,07,15,16,51,28.30
2013,07,15,16,52,28.20
2013,07,15,16,53,28.10
2013,07,15,16,54,28.10
2013,07,15,16,55,28.10
2013,07,15,16,56,28.10
2013,07,15,16,57,28.00
2013,07,15,16,58,28.00
2013,07,15,16,59,28.00
2013,07,15,17,00,28.00
2013,07,15,17,01,28.00
2013,07,15,17,02,28.00
2013,07,15,17,03,28.10
2013,07,15,17,04,28.10
2013,07,15,17,05,28.10
2013,07,15,17,06,28.20
2013,07,15,17,07,28.20
2013,07,15,17,08,28.30
2013,07,15,17,09,28.40
2013,07,15,17,10,28.40
2013,07,15,17,11,28.30
2013,07,15,17,12,28.30
2013,07,15,17,13,28.20
2013,07,15,17,14,28.20
2013,07,15,17,15,28.20
2013,07,15,17,16,28.20
2013,07,15,17,17,28.20
2013,07,15,17,18,28.20
2013,07,15,17,19,28.30
2013,07,15,17,20,28.30
2013,07,15,17,21,28.40
2013,07,15,17,22,28.40
2013,07,15,17,23,28.50
2013,07,15,17,24,28.60
2013,07,15,17,25,28.70
2013,07,15,17,26,28.70